Racecast

Higgins

Difficulty:i +16.6% (3218m, the usual distance here) · 106 results · 106 athletes

All 3218m 5000m
Rating scale ?

Distances raced here

DistanceDifficultyiResults FirstLast
3218m +16.6% 79 2016-10-17 2016-10-17
5000m +9.3% 27 2016-10-17 2016-10-17

Best speed ratings all distances

Boys

#AthleteRatingi TimeDistSchoolDate
1 Yahir DeLara 126.5 13:50.6 3218m Booker (TX) 2016-10-17
2 Alexys Camacho 120.0 14:35.6 3218m Booker (TX) 2016-10-17
3 Collin Gonzales 119.0 14:43.2 3218m Miami (OK) 2016-10-17
4 AJ Herrera 118.3 14:48.2 3218m Booker (TX) 2016-10-17
5 Marcos Reyes 116.8 19:18.4 5000m Darrouzett (TX) 2016-10-17
6 Omar Deanda 115.1 15:12.9 3218m Follett (TX) 2016-10-17
7 Ismael Jimenez 113.3 15:27.7 3218m Booker (TX) 2016-10-17
8 Fabian Camocho 113.1 15:28.8 3218m Booker (TX) 2016-10-17
9 Christian Zubia 108.2 16:11.1 3218m Darrouzett (TX) 2016-10-17
10 Carlos Calleros 106.4 16:27.6 3218m Darrouzett (TX) 2016-10-17
11 Diego Flores 104.2 21:39.1 5000m Booker (TX) 2016-10-17
12 Victorino Silva 104.1 21:39.9 5000m Booker (TX) 2016-10-17
13 Colten Kemp 103.9 16:51.2 3218m Follett (TX) 2016-10-17
14 Isiah Hron 103.0 21:53.8 5000m Higgins (merged into Canadian ISD after 2019-20) (TX) 2016-10-17
15 Manny Camacho 101.2 22:17.5 5000m Booker (TX) 2016-10-17
16 Chevy Scott 100.9 17:21.2 3218m Booker (TX) 2016-10-17
17 Jason Moya 100.3 17:28 3218m Darrouzett (TX) 2016-10-17
18 Martin Gaytan 97.0 18:03.3 3218m Booker (TX) 2016-10-17
19 Isreal Banuelos 96.5 23:22.6 5000m Booker (TX) 2016-10-17
20 Caleb Homfeld 96.1 18:13.6 3218m Miami (OK) 2016-10-17
21 Justin Smith 96.0 23:28.7 5000m Follett (TX) 2016-10-17
22 Dalton Bray 95.3 23:39.9 5000m Miami (OK) 2016-10-17
23 Ramon Ochoa 95.3 18:23 3218m Darrouzett (TX) 2016-10-17
24 Steven Davis 93.4 24:08.5 5000m Higgins (merged into Canadian ISD after 2019-20) (TX) 2016-10-17
25 Devin Aguinaga 92.7 24:19.7 5000m Darrouzett (TX) 2016-10-17
26 Dallas Bentley 92.6 24:21.8 5000m Darrouzett (TX) 2016-10-17
27 Edgar Avilla 91.5 24:38.1 5000m Booker (TX) 2016-10-17
28 Jeremy Earsley 88.6 25:27.6 5000m Follett (TX) 2016-10-17
29 Valentine Ramirez 88.2 25:33.4 5000m Booker (TX) 2016-10-17
30 Dawson Hefley 86.8 25:58.5 5000m Briscoe Fort Elliott (TX) 2016-10-17
31 Tyler Gregory 85.6 26:20.4 5000m Follett (TX) 2016-10-17
32 Jared Cooper 84.2 20:47.4 3218m Darrouzett (TX) 2016-10-17
33 Kyler Wheatley 84.0 26:50.5 5000m Darrouzett (TX) 2016-10-17
34 Braley Long 83.1 27:08.2 5000m Briscoe Fort Elliott (TX) 2016-10-17
35 Clay Neal 80.5 28:00.7 5000m Higgins (merged into Canadian ISD after 2019-20) (TX) 2016-10-17
36 Brenham Allen 80.2 28:07.1 5000m Higgins (merged into Canadian ISD after 2019-20) (TX) 2016-10-17
37 Sheridan Franks 79.1 28:30.9 5000m Follett (TX) 2016-10-17
38 Shane Pritchett 77.2 29:12.4 5000m Higgins (merged into Canadian ISD after 2019-20) (TX) 2016-10-17
39 Kyle Moore 74.9 30:06.3 5000m Higgins (merged into Canadian ISD after 2019-20) (TX) 2016-10-17
40 Josh Stuart 73.9 30:30.4 5000m Follett (TX) 2016-10-17
41 Hunter Smith 65.0 34:40.8 5000m Briscoe Fort Elliott (TX) 2016-10-17
42 Mariano Perez 65.0 34:41.3 5000m Briscoe Fort Elliott (TX) 2016-10-17
43 Tyler Lester 65.0 34:41.8 5000m Briscoe Fort Elliott (TX) 2016-10-17

View all →

Girls

#AthleteRatingi TimeDistSchoolDate
1 Kimi Godoy 120.0 16:16.8 3218m Booker (TX) 2016-10-17
2 Jasmine Hernandez 119.0 16:25.3 3218m Darrouzett (TX) 2016-10-17
3 Kylie Miller 118.4 15:05.2 3218m Darrouzett (TX) 2016-10-17
4 Susana Ramirez 117.2 15:14.1 3218m Booker (TX) 2016-10-17
5 Monic Ceniceros 116.6 15:18.9 3218m Booker (TX) 2016-10-17
6 Brittney Hare 115.0 15:31.4 3218m Miami (OK) 2016-10-17
7 Camryn Gill 114.5 15:36 3218m Miami (OK) 2016-10-17
8 Laura Peffley 113.2 15:46.6 3218m Miami (OK) 2016-10-17
9 Isabel San Martin 110.6 17:39.9 3218m Booker (TX) 2016-10-17
10 Delanie Lambert 109.4 17:51.9 3218m Darrouzett (TX) 2016-10-17
11 Lauren Skipper 107.1 16:40.2 3218m Booker (TX) 2016-10-17
12 Nayeli Galvan 106.1 16:49.7 3218m Booker (TX) 2016-10-17
13 Brenda Ramirez 106.0 16:51.3 3218m Booker (TX) 2016-10-17
14 Stephanie Scott 104.6 17:04.6 3218m Booker (TX) 2016-10-17
15 Cloey Luke 104.1 17:09.1 3218m Miami (OK) 2016-10-17
16 Abby Skidmore 103.5 18:52.2 3218m Miami (OK) 2016-10-17
17 Taytum Allen 103.4 18:53.6 3218m Higgins (MA) 2016-10-17
18 Diana Cancel 103.1 18:56.8 3218m Booker (TX) 2016-10-17
19 Victoria Lapka 101.0 19:21.2 3218m Miami (OK) 2016-10-17
20 Mika Bell 100.5 17:46.3 3218m Miami (OK) 2016-10-17
21 Chloe Carson 99.8 19:34.4 3218m Booker (TX) 2016-10-17
22 Matty King 99.7 19:35.9 3218m Higgins (MA) 2016-10-17
23 Marina Flores 99.6 17:56.2 3218m Booker (TX) 2016-10-17
24 Kennedy Laubham 99.2 18:00 3218m Follett (TX) 2016-10-17
25 Maddie Hernandez 98.5 19:50.1 3218m Booker (TX) 2016-10-17
26 Cora Watson 96.5 18:31 3218m Higgins (merged into Canadian ISD after 2019-20) (TX) 2016-10-17
27 Taelor Byrd 95.2 20:32 3218m Booker (TX) 2016-10-17
28 Cadence Coffee 94.5 20:41.2 3218m Miami (OK) 2016-10-17
29 Cara Watson 94.3 18:56.5 3218m Higgins (merged into Canadian ISD after 2019-20) (TX) 2016-10-17
30 Mckayla Fuchs 93.9 19:01.2 3218m Higgins (merged into Canadian ISD after 2019-20) (TX) 2016-10-17
31 Baylee Cramer 93.4 20:55.7 3218m Miami (OK) 2016-10-17
32 Leslie Campos 91.8 19:27.4 3218m Follett (TX) 2016-10-17
33 Keelie Burt 91.7 19:28.2 3218m Booker (TX) 2016-10-17
34 Lluvia Salazar 91.6 19:29.5 3218m Darrouzett (TX) 2016-10-17
35 Brianna Justice 91.5 19:31.5 3218m Darrouzett (TX) 2016-10-17
36 Addison Walker 91.2 19:35.3 3218m Briscoe Fort Elliott (TX) 2016-10-17
37 Averi Durham 90.5 19:44.7 3218m Higgins (merged into Canadian ISD after 2019-20) (TX) 2016-10-17
38 Sydnei Smith 90.2 21:39.4 3218m Briscoe Fort Elliott (TX) 2016-10-17
39 Brina Pool 88.8 22:00.7 3218m Higgins (MA) 2016-10-17
40 Cheyenne Overstreet 88.0 22:11.4 3218m Darrouzett (TX) 2016-10-17
41 Kaitlyn Hare 87.6 20:23.1 3218m Miami (OK) 2016-10-17
42 Camryn Clark 87.0 20:31.9 3218m Briscoe Fort Elliott (TX) 2016-10-17
43 Audra Reeder 86.8 22:29.8 3218m Briscoe Fort Elliott (TX) 2016-10-17
44 Karen Cruz 86.5 20:39.2 3218m Follett (TX) 2016-10-17
45 Saron Zepeda 86.4 20:40.5 3218m Darrouzett (TX) 2016-10-17
46 Sydney Hughes 86.3 22:38.9 3218m Briscoe Fort Elliott (TX) 2016-10-17
47 Danielle White 86.2 20:43 3218m Miami (OK) 2016-10-17
48 Jillian Jones 85.3 20:56.6 3218m Follett (TX) 2016-10-17
49 Alyssa O'Neil 84.5 23:07.4 3218m Higgins (MA) 2016-10-17
50 Macy Denney 83.6 23:22.3 3218m Higgins (MA) 2016-10-17
51 Hannah Shephard 80.1 22:18.1 3218m Briscoe Fort Elliott (TX) 2016-10-17
52 Cydney Lovato 78.1 22:51.5 3218m Darrouzett (TX) 2016-10-17
53 Amanda Schoenhals 77.7 22:59.8 3218m Darrouzett (TX) 2016-10-17
54 Ashlyn Schilling 77.5 23:02.8 3218m Follett (TX) 2016-10-17
55 Dakota Suit 77.4 23:04.2 3218m Higgins (merged into Canadian ISD after 2019-20) (TX) 2016-10-17
56 Olivia Bryan 77.3 23:05.3 3218m Follett (TX) 2016-10-17
57 Abbi Tarr 77.3 23:06.3 3218m Higgins (merged into Canadian ISD after 2019-20) (TX) 2016-10-17
58 Kiara Patton 76.5 23:21 3218m Briscoe Fort Elliott (TX) 2016-10-17
59 Baylee Barnett 74.5 23:57.6 3218m Briscoe Fort Elliott (TX) 2016-10-17
60 KK Lyle 70.2 27:50.5 3218m Darrouzett (TX) 2016-10-17

View all →

Best team performances by rating top-5 average rating, one race, all distances

Boys

#SchoolTop-5 avg DistMeetDate
1 Booker (TX) 118.3 3218m UIL 1A District 1 2016-10-17
2 Darrouzett (TX) 98.9 3218m UIL 1A District 1 2016-10-17
3 Higgins (merged into Canadian ISD after 2019-20) (TX) 86.9 5000m UIL 1A District 1 2016-10-17
4 Follett (TX) 84.6 5000m UIL 1A District 1 2016-10-17
5 Briscoe Fort Elliott (TX) 73.0 5000m UIL 1A District 1 2016-10-17

View all →

Girls

#SchoolTop-5 avg DistMeetDate
1 Booker (TX) 110.6 3218m UIL 1A District 1 2016-10-17
2 Miami (OK) 109.5 3218m UIL 1A District 1 2016-10-17
3 Darrouzett (TX) 93.2 3218m UIL 1A District 1 2016-10-17
4 Higgins (MA) 92.0 3218m UIL 1A District 1 2016-10-17
5 Higgins (merged into Canadian ISD after 2019-20) (TX) 90.5 3218m UIL 1A District 1 2016-10-17
6 Follett (TX) 88.0 3218m UIL 1A District 1 2016-10-17
7 Briscoe Fort Elliott (TX) 81.9 3218m UIL 1A District 1 2016-10-17

View all →

Meets held here all distances

MeetLast heldDistanceResults
UIL 1A District 1 2016-10-17 3218, 5000 106

View all →